User: anonymous   Login
Location: Kernascl�den
(48.0062°N, 3.3198°W)
Time: 03:26:58
(UTC+00:00)
Language:

Cosmos 2082 Rocket - Orbit

View from above orbital plane
View from above orbital plane
View from above satellite
View from above satellite

Ground track
Ground track

The orbit data is extracted from the following two-line orbital elements,

1 20625U 90046B   21106.35378841  .00000259  00000-0  15909-3 0  9996
2 20625  70.9972  92.4148 0013237 149.4126 210.7771 14.14665385595458
Epoch (UTC): 16 April 2021 08:29:27
Eccentricity: 0.0013237
inclination: 70.9972°
perigee height: 834 km
apogee height: 853 km
right ascension of ascending node: 92.4148°
argument of perigee: 149.4126°
revolutions per day: 14.14665385
mean anomaly at epoch: 210.7771°
orbit number at epoch: 59545

The dashed part of the orbit path shows where the satellite is in the earth's shadow,  

DLR